QPF
0.01 0.00 0.00 0.00 0.00 0.00 0.00 0.00 0.00 0.00 0.00 0.00 0.00 0.00 0.00 0.00 0.00 0.00 0.00 0.00 0.00 0.00 0.00 0.00 0.00 0.00 0.00 0.00 0.00 0.00 0.00 0.00 0.00 0.01 0.03 0.01 0.00 0.00 0.00 0.01 0.01 0.00 0.02
0.00 0.00 0.01 0.00 0.00 0.00 0.00 0.00 0.00 0.00 0.00 0.00 0.00 0.00 0.00 0.00 0.00 0.00 0.00 0.00 0.00 0.00 0.00 0.00 0.00 0.00 0.00 0.00 0.00 0.00 0.00 0.00 0.00 0.01 0.01 0.00 0.00 0.00 0.00 0.00 0.01 0.00 0.01
0.00 0.00 0.00 0.00 0.01 0.01 0.00 0.00 0.00 0.00 0.00 0.00 0.00 0.00 0.00 0.00 0.00 0.00 0.00 0.00 0.00 0.00 0.00 0.00 0.00 0.00 0.00 0.00 0.00 0.00 0.00 0.00 0.00 0.00 0.00 0.00 0.00 0.00 0.00 0.02 0.00 0.00 0.00
0.00 0.00 0.00 0.00 0.00 0.00 0.01 0.01 0.00 0.00 0.00 0.00 0.00 0.00 0.00 0.00 0.00 0.00 0.00 0.00 0.00 0.00 0.00 0.00 0.00 0.00 0.00 0.00 0.00 0.00 0.00 0.00 0.00 0.00 0.00 0.01 0.00 0.01 0.00 0.01 0.02 0.00 0.00
0.00 0.00 0.00 0.00 0.00 0.00 0.00 0.00 0.00 0.00 0.00 0.00 0.00 0.00 0.00 0.00 0.00 0.00 0.00 0.00 0.00 0.00 0.00 0.00 0.00 0.00 0.00 0.00 0.00 0.00 0.00 0.00 0.00 0.00 0.00 0.00 0.03 0.04 0.05 0.04 0.02 0.00 0.00
0.00 0.00 0.00 0.00 0.00 0.00 0.00 0.00 0.00 0.00 0.00 0.00 0.00 0.00 0.00 0.00 0.00 0.00 0.00 0.00 0.00 0.00 0.00 0.00 0.00 0.00 0.00 0.00 0.00 0.00 0.00 0.00 0.00 0.00 0.00 0.00 0.04 0.03 0.07 0.04 0.00 0.00 0.00
0.00 0.00 0.00 0.00 0.00 0.00 0.00 0.00 0.00 0.00 0.00 0.00 0.00 0.00 0.00 0.00 0.00 0.00 0.00 0.00 0.00 0.00 0.00 0.00 0.00 0.00 0.00 0.00 0.00 0.00 0.00 0.00 0.00 0.00 0.00 0.00 0.00 0.07 0.09 0.05 0.01 0.00 0.00
0.00 0.00 0.00 0.00 0.00 0.00 0.00 0.00 0.00 0.00 0.00 0.00 0.00 0.00 0.00 0.00 0.00 0.00 0.00 0.00 0.00 0.00 0.00 0.00 0.00 0.00 0.00 0.00 0.00 0.00 0.00 0.00 0.00 0.00 0.00 0.00 0.00 0.03 0.05 0.05 0.02 0.00 0.00
0.00 0.00 0.00 0.00 0.00 0.00 0.00 0.00 0.00 0.00 0.00 0.00 0.00 0.00 0.00 0.00 0.00 0.00 0.00 0.00 0.00 0.00 0.00 0.02 0.01 0.00 0.00 0.00 0.00 0.00 0.00 0.00 0.00 0.00 0.00 0.00 0.00 0.01 0.03 0.04 0.02 0.00 0.00
0.00 0.00 0.00 0.00 0.00 0.00 0.00 0.00 0.00 0.00 0.00 0.00 0.00 0.00 0.00 0.00 0.00 0.00 0.00 0.00 0.00 0.00 0.00 0.04 0.10 0.03 0.00 0.00 0.00 0.00 0.00 0.00 0.00 0.00 0.00 0.00 0.00 0.01 0.02 0.05 0.03 0.01 0.00
0.00 0.00 0.00 0.00 0.00 0.00 0.00 0.00 0.00 0.00 0.00 0.00 0.00 0.00 0.00 0.00 0.00 0.00 0.00 0.00 0.00 0.00 0.00 0.00 0.01 0.00 0.00 0.00 0.00 0.01 0.00 0.00 0.00 0.00 0.00 0.00 0.00 0.00 0.02 0.03 0.03 0.01 0.00
0.00 0.00 0.00 0.00 0.00 0.00 0.00 0.00 0.00 0.00 0.00 0.00 0.00 0.00 0.00 0.00 0.00 0.00 0.00 0.00 0.00 0.00 0.00 0.00 0.00 0.00 0.00 0.00 0.00 0.01 0.01 0.01 0.00 0.00 0.00 0.00 0.00 0.00 0.04 0.05 0.04 0.01 0.00
0.00 0.00 0.00 0.00 0.00 0.00 0.00 0.00 0.00 0.00 0.00 0.00 0.00 0.00 0.00 0.00 0.00 0.00 0.00 0.00 0.00 0.00 0.00 0.00 0.00 0.00 0.00 0.00 0.00 0.00 0.01 0.03 0.02 0.01 0.00 0.00 0.00 0.00 0.03 0.05 0.04 0.04 0.01
0.00 0.00 0.00 0.00 0.00 0.00 0.00 0.00 0.00 0.00 0.00 0.00 0.00 0.00 0.00 0.00 0.00 0.00 0.00 0.00 0.00 0.00 0.00 0.00 0.00 0.00 0.00 0.00 0.00 0.00 0.00 0.00 0.01 0.00 0.00 0.00 0.03 0.00 0.02 0.05 0.04 0.04 0.01
0.00 0.00 0.00 0.00 0.00 0.00 0.00 0.00 0.00 0.00 0.00 0.00 0.00 0.00 0.00 0.00 0.00 0.00 0.00 0.00 0.00 0.00 0.00 0.00 0.00 0.00 0.00 0.00 0.00 0.00 0.00 0.00 0.00 0.00 0.00 0.00 0.00 0.00 0.02 0.03 0.07 0.06 0.03
0.00 0.00 0.00 0.00 0.00 0.00 0.00 0.00 0.00 0.00 0.00 0.00 0.00 0.00 0.00 0.00 0.00 0.00 0.00 0.00 0.00 0.00 0.00 0.00 0.00 0.00 0.00 0.00 0.00 0.00 0.00 0.00 0.00 0.00 0.00 0.00 0.00 0.00 0.02 0.06 0.09 0.09 0.07
0.00 0.00 0.00 0.00 0.00 0.00 0.00 0.00 0.00 0.00 0.00 0.00 0.00 0.00 0.00 0.00 0.00 0.00 0.00 0.00 0.00 0.00 0.00 0.00 0.00 0.00 0.00 0.00 0.00 0.00 0.00 0.00 0.00 0.00 0.00 0.00 0.00 0.00 0.01 0.04 0.06 0.10 0.11
0.00 0.00 0.00 0.00 0.00 0.00 0.00 0.00 0.00 0.00 0.00 0.00 0.00 0.00 0.00 0.00 0.00 0.00 0.00 0.00 0.00 0.00 0.00 0.00 0.00 0.00 0.00 0.00 0.00 0.00 0.00 0.00 0.00 0.00 0.00 0.00 0.00 0.00 0.01 0.02 0.06 0.09 0.13
0.00 0.00 0.00 0.00 0.00 0.00 0.00 0.00 0.00 0.00 0.00 0.00 0.00 0.00 0.00 0.00 0.00 0.00 0.00 0.00 0.00 0.00 0.00 0.00 0.00 0.00 0.00 0.00 0.00 0.00 0.00 0.00 0.00 0.00 0.00 0.00 0.00 0.00 0.00 0.01 0.04 0.09 0.10
0.00 0.00 0.00 0.00 0.00 0.00 0.00 0.00 0.00 0.00 0.00 0.00 0.00 0.00 0.00 0.00 0.00 0.00 0.00 0.00 0.00 0.00 0.00 0.00 0.00 0.00 0.00 0.00 0.00 0.00 0.00 0.00 0.00 0.00 0.00 0.00 0.00 0.00 0.01 0.01 0.01 0.05 0.11
0.00 0.00 0.00 0.00 0.00 0.00 0.00 0.00 0.00 0.00 0.00 0.00 0.00 0.00 0.00 0.00 0.00 0.00 0.00 0.00 0.00 0.00 0.00 0.00 0.00 0.00 0.00 0.00 0.00 0.00 0.00 0.00 0.00 0.00 0.00 0.00 0.00 0.00 0.00 0.01 0.01 0.03 0.05
0.00 0.00 0.00 0.00 0.00 0.00 0.00 0.00 0.00 0.00 0.00 0.00 0.00 0.00 0.00 0.00 0.00 0.00 0.00 0.00 0.00 0.00 0.00 0.00 0.00 0.00 0.00 0.00 0.00 0.00 0.00 0.00 0.00 0.00 0.00 0.00 0.00 0.00 0.00 0.00 0.01 0.01 0.02
0.00 0.00 0.00 0.00 0.00 0.00 0.00 0.00 0.00 0.00 0.00 0.00 0.00 0.00 0.00 0.00 0.00 0.00 0.00 0.00 0.00 0.00 0.00 0.00 0.00 0.00 0.00 0.00 0.00 0.00 0.00 0.00 0.00 0.00 0.00 0.00 0.00 0.00 0.00 0.00 0.00 0.01 0.02
0.00 0.00 0.00 0.00 0.00 0.00 0.00 0.00 0.00 0.00 0.00 0.00 0.00 0.00 0.00 0.00 0.00 0.00 0.00 0.00 0.00 0.00 0.00 0.00 0.00 0.00 0.00 0.00 0.00 0.00 0.00 0.00 0.00 0.00 0.00 0.00 0.00 0.00 0.00 0.00 0.00 0.00 0.00
0.00 0.00 0.00 0.00 0.00 0.00 0.00 0.00 0.00 0.00 0.00 0.00 0.00 0.00 0.00 0.00 0.00 0.00 0.00 0.00 0.00 0.00 0.00 0.00 0.00 0.00 0.00 0.00 0.00 0.00 0.00 0.00 0.00 0.00 0.00 0.00 0.00 0.00 0.00 0.00 0.00 0.00 0.00
0.00 0.00 0.00 0.00 0.00 0.00 0.00 0.00 0.00 0.00 0.00 0.00 0.00 0.00 0.00 0.00 0.00 0.00 0.00 0.00 0.00 0.00 0.00 0.00 0.00 0.00 0.00 0.00 0.00 0.00 0.00 0.00 0.00 0.01 0.00 0.00 0.00 0.00 0.00 0.00 0.00 0.00 0.00
MSLP
1016.97 1016.74 1016.11 1015.68 1015.53 1015.27 1015.05 1014.92 1014.86 1014.75 1014.73 1014.72 1014.77 1014.83 1014.79 1014.68 1014.67 1014.75 1014.79 1014.71 1014.65 1014.60 1014.56 1014.62 1014.65 1014.58 1014.52 1014.46 1014.35 1014.30 1014.44 1014.42 1014.43 1014.43 1014.29 1014.29 1014.35 1014.54 1014.42 1014.47 1014.42 1014.43 1014.53
1017.17 1016.99 1016.47 1016.17 1015.95 1015.49 1015.38 1015.43 1015.15 1014.99 1014.99 1014.99 1014.94 1014.88 1014.86 1014.79 1014.73 1014.75 1014.78 1014.77 1014.80 1014.71 1014.53 1014.68 1014.69 1014.60 1014.62 1014.59 1014.51 1014.50 1014.50 1014.47 1014.64 1014.59 1014.38 1014.31 1014.39 1014.37 1014.36 1014.55 1014.63 1014.54 1014.66
1017.24 1017.12 1016.77 1016.43 1016.22 1015.80 1015.79 1015.78 1015.54 1015.41 1015.19 1015.15 1015.07 1014.96 1014.86 1014.80 1014.81 1014.88 1014.83 1014.70 1014.70 1014.79 1014.76 1014.66 1014.65 1014.61 1014.56 1014.53 1014.53 1014.59 1014.56 1014.48 1014.65 1014.57 1014.55 1014.61 1014.63 1014.51 1014.43 1014.42 1014.58 1014.58 1014.66
1017.38 1017.20 1017.05 1016.66 1016.41 1016.18 1016.22 1016.19 1015.94 1015.86 1015.67 1015.45 1015.26 1015.04 1014.89 1014.82 1014.84 1014.91 1014.97 1014.87 1014.68 1014.56 1014.66 1014.67 1014.62 1014.60 1014.51 1014.50 1014.42 1014.47 1014.57 1014.51 1014.72 1014.62 1014.69 1014.76 1014.82 1014.65 1014.68 1014.64 1014.72 1014.65 1014.68
1017.50 1017.41 1017.05 1016.79 1016.68 1016.61 1016.66 1016.39 1016.21 1016.14 1015.90 1015.83 1015.59 1015.40 1015.13 1015.08 1014.99 1014.97 1014.99 1014.99 1014.82 1014.63 1014.60 1014.54 1014.59 1014.56 1014.42 1014.50 1014.38 1014.41 1014.52 1014.42 1014.54 1014.69 1014.68 1014.65 1014.88 1014.65 1014.62 1014.79 1014.80 1014.80 1014.89
1017.44 1017.34 1017.34 1017.06 1016.98 1016.88 1016.71 1016.46 1016.54 1016.28 1016.21 1016.02 1015.78 1015.61 1015.42 1015.21 1015.21 1015.16 1015.05 1015.04 1015.01 1014.82 1014.64 1014.51 1014.56 1014.62 1014.42 1014.41 1014.37 1014.37 1014.41 1014.51 1014.28 1014.56 1014.64 1014.42 1014.41 1014.46 1014.53 1014.78 1014.62 1014.64 1014.84
1017.81 1017.64 1017.54 1017.55 1017.32 1017.07 1016.88 1016.79 1016.63 1016.47 1016.39 1016.17 1015.99 1015.80 1015.66 1015.60 1015.37 1015.24 1015.19 1015.12 1015.10 1014.96 1014.73 1014.64 1014.57 1014.56 1014.34 1014.33 1014.31 1014.29 1014.33 1014.46 1014.49 1014.38 1014.38 1014.33 1014.17 1014.19 1014.30 1014.60 1014.66 1014.54 1014.62
1018.22 1018.35 1018.19 1017.99 1017.80 1017.50 1017.20 1016.94 1016.63 1016.63 1016.61 1016.39 1016.22 1016.15 1016.04 1015.99 1015.83 1015.61 1015.60 1015.52 1015.26 1015.13 1014.70 1014.56 1014.51 1014.45 1014.26 1014.16 1014.09 1014.08 1014.12 1014.32 1014.36 1014.45 1014.16 1013.98 1013.87 1013.61 1013.80 1014.23 1014.66 1014.19 1014.39
1018.85 1018.87 1018.75 1018.54 1018.09 1017.68 1017.35 1017.14 1016.97 1016.88 1016.95 1016.81 1016.59 1016.55 1016.34 1016.33 1016.22 1016.04 1016.07 1015.87 1015.61 1015.28 1015.00 1014.65 1014.43 1014.35 1014.26 1014.09 1014.01 1014.01 1013.99 1013.96 1014.01 1014.11 1014.05 1013.81 1013.67 1013.44 1013.44 1013.82 1014.19 1014.32 1014.10
1019.39 1019.43 1019.15 1018.74 1018.30 1018.03 1017.83 1017.44 1017.29 1017.41 1017.33 1017.26 1017.11 1016.95 1016.79 1016.66 1016.59 1016.43 1016.39 1016.18 1015.89 1015.62 1015.34 1015.06 1014.74 1014.41 1014.22 1014.06 1013.99 1013.95 1013.86 1013.74 1013.60 1013.51 1013.71 1013.62 1013.47 1013.31 1013.05 1013.27 1013.66 1014.21 1014.10
1019.70 1019.80 1019.53 1019.13 1018.50 1018.18 1018.15 1018.01 1017.95 1017.96 1018.01 1017.86 1017.65 1017.38 1017.30 1017.23 1016.99 1016.87 1016.68 1016.38 1016.22 1016.16 1015.91 1015.51 1015.20 1014.89 1014.56 1014.22 1013.98 1013.76 1013.49 1013.45 1013.30 1013.07 1013.02 1013.03 1012.92 1012.78 1012.61 1012.68 1013.03 1013.49 1014.01
1019.84 1019.95 1019.82 1019.52 1019.00 1018.52 1018.43 1018.61 1018.60 1018.61 1018.70 1018.62 1018.39 1018.16 1018.03 1017.92 1017.56 1017.30 1017.17 1016.86 1016.63 1016.70 1016.48 1016.07 1015.66 1015.32 1014.99 1014.86 1014.38 1013.90 1013.53 1013.31 1013.13 1012.84 1012.53 1012.45 1012.53 1012.46 1012.33 1012.44 1012.68 1012.95 1013.48
1019.68 1019.89 1019.93 1019.90 1019.64 1019.31 1019.12 1019.16 1019.14 1019.16 1019.25 1019.13 1018.97 1018.86 1018.69 1018.46 1018.33 1017.96 1017.73 1017.45 1017.41 1017.05 1017.09 1016.71 1016.34 1016.00 1015.76 1015.35 1014.91 1014.44 1013.82 1013.29 1012.95 1012.67 1012.30 1012.17 1012.20 1012.04 1012.00 1011.89 1012.05 1012.42 1012.80
1019.51 1019.94 1020.03 1019.94 1019.95 1019.88 1019.63 1019.61 1019.71 1019.53 1019.77 1019.70 1019.55 1019.38 1019.14 1019.03 1018.98 1018.79 1018.55 1018.29 1018.11 1017.83 1017.52 1017.38 1016.88 1016.71 1016.29 1015.85 1015.43 1014.78 1014.41 1013.93 1013.35 1012.63 1012.15 1011.85 1011.85 1011.87 1011.74 1011.51 1011.40 1011.68 1012.15
1019.75 1020.12 1020.16 1019.93 1020.00 1019.96 1019.86 1019.81 1019.69 1019.99 1020.25 1020.24 1020.12 1019.84 1019.55 1019.29 1019.45 1019.39 1019.21 1019.10 1018.78 1018.44 1018.07 1017.79 1017.38 1017.09 1016.68 1016.20 1015.67 1015.14 1014.56 1014.09 1013.51 1013.09 1012.55 1011.85 1011.59 1011.57 1011.32 1011.30 1010.96 1010.96 1011.28
1019.88 1020.37 1020.57 1020.49 1020.25 1020.09 1019.92 1019.81 1019.78 1019.92 1020.30 1020.37 1020.34 1020.32 1020.02 1019.83 1019.85 1019.86 1019.74 1019.61 1019.35 1018.97 1018.73 1018.45 1018.11 1017.51 1017.04 1016.52 1015.82 1015.22 1014.68 1014.15 1013.61 1013.04 1012.54 1011.98 1011.34 1011.22 1011.07 1010.75 1010.67 1010.46 1010.61
1020.35 1020.46 1020.49 1020.49 1020.53 1020.47 1020.30 1020.08 1020.11 1020.25 1020.00 1020.09 1020.22 1020.15 1020.24 1020.31 1020.41 1020.41 1020.18 1019.91 1019.74 1019.42 1018.96 1018.67 1018.34 1017.92 1017.40 1016.78 1016.22 1015.33 1014.60 1013.98 1013.45 1013.06 1012.59 1012.05 1011.49 1010.93 1010.62 1010.38 1010.41 1010.27 1010.24
1020.25 1020.62 1020.79 1020.79 1021.04 1020.99 1020.68 1020.40 1020.45 1020.74 1020.71 1020.66 1020.57 1020.56 1020.46 1020.59 1020.75 1020.80 1020.63 1020.51 1020.32 1019.83 1019.37 1019.08 1018.85 1018.21 1017.74 1017.14 1016.51 1015.47 1014.66 1014.12 1013.59 1013.19 1012.55 1012.01 1011.54 1011.05 1010.50 1010.01 1009.94 1009.69 1009.69
1020.21 1020.73 1021.02 1021.22 1021.38 1021.46 1021.30 1021.05 1020.91 1021.06 1021.22 1021.24 1021.01 1021.09 1021.16 1021.23 1021.24 1021.08 1020.97 1020.97 1020.73 1020.19 1019.96 1019.91 1019.58 1018.98 1018.16 1017.45 1016.52 1015.52 1014.59 1014.03 1013.52 1013.10 1012.78 1012.31 1011.62 1011.08 1010.49 1009.68 1009.34 1009.23 1009.05
1020.77 1020.96 1021.29 1021.62 1021.76 1021.57 1021.46 1021.33 1021.46 1021.46 1021.57 1021.49 1021.53 1021.46 1021.68 1021.98 1021.86 1021.64 1021.43 1021.27 1020.91 1020.50 1020.52 1020.45 1020.07 1019.46 1018.76 1018.05 1016.67 1015.35 1014.56 1013.90 1013.59 1013.39 1013.01 1012.53 1011.91 1011.54 1011.17 1010.60 1009.41 1008.78 1008.62
1021.07 1021.56 1021.91 1022.09 1022.39 1022.13 1021.98 1021.82 1021.83 1022.04 1022.03 1021.89 1021.80 1021.86 1022.11 1022.41 1022.47 1022.24 1022.02 1021.75 1021.37 1021.06 1020.95 1020.75 1020.50 1019.93 1019.28 1018.41 1016.88 1015.28 1014.43 1013.64 1013.53 1013.49 1012.99 1012.62 1012.56 1012.06 1011.48 1010.94 1010.31 1009.59 1008.60
1021.34 1021.71 1022.10 1022.33 1022.31 1022.47 1022.47 1022.46 1022.41 1022.29 1022.38 1022.35 1022.19 1022.24 1022.47 1022.62 1022.73 1022.69 1022.60 1022.31 1022.07 1021.77 1021.58 1021.13 1020.82 1020.55 1020.05 1019.46 1018.78 1017.54 1016.30 1014.65 1013.85 1013.53 1013.25 1012.82 1012.76 1012.45 1012.00 1011.64 1011.13 1010.33 1009.56
1021.71 1022.20 1022.61 1022.81 1022.85 1022.74 1022.74 1022.71 1022.50 1022.37 1022.65 1022.74 1022.91 1022.90 1022.95 1023.15 1023.13 1023.02 1023.04 1022.86 1022.41 1022.18 1022.13 1021.81 1021.37 1021.09 1020.86 1020.43 1019.97 1020.04 1018.98 1017.79 1016.18 1013.99 1013.54 1013.37 1013.37 1012.92 1012.48 1011.88 1010.97 1010.55 1009.81
1022.08 1022.32 1022.71 1023.03 1023.18 1023.15 1022.78 1022.98 1023.07 1023.16 1023.21 1023.40 1023.53 1023.80 1023.68 1023.60 1023.60 1023.50 1023.40 1023.24 1023.17 1022.92 1022.56 1022.24 1021.89 1021.68 1021.38 1020.87 1020.52 1020.70 1020.74 1020.27 1018.53 1015.75 1014.35 1014.41 1013.97 1013.57 1012.79 1012.30 1011.48 1010.50 1010.01
1021.99 1022.46 1022.83 1023.13 1023.45 1023.52 1023.28 1023.27 1023.28 1023.61 1023.58 1023.72 1023.90 1024.07 1024.40 1024.27 1024.25 1024.15 1023.91 1023.71 1023.59 1023.37 1023.12 1022.55 1022.14 1021.87 1021.68 1021.53 1021.12 1020.82 1020.58 1020.40 1019.75 1019.57 1016.59 1014.68 1014.21 1014.06 1013.63 1012.96 1011.97 1010.77 1009.62
1022.10 1022.49 1022.80 1023.13 1023.56 1023.67 1023.62 1023.72 1023.78 1023.87 1024.01 1024.33 1024.50 1024.67 1024.93 1024.93 1025.00 1024.88 1024.48 1024.26 1023.94 1023.76 1023.51 1023.11 1022.66 1022.30 1022.07 1022.04 1021.79 1021.53 1021.24 1021.01 1020.40 1020.04 1018.70 1017.43 1015.62 1013.85 1013.80 1012.86 1012.18 1010.94 1009.76
Thickness
5726 5726 5732 5734 5733 5733 5733 5733 5732 5731 5729 5727 5725 5722 5721 5721 5720 5718 5717 5717 5716 5714 5713 5711 5709 5709 5710 5710 5711 5710 5709 5707 5705 5704 5704 5702 5701 5698 5698 5696 5695 5693 5691
5722 5722 5725 5727 5727 5730 5729 5726 5727 5727 5724 5722 5721 5720 5718 5718 5717 5716 5714 5714 5712 5712 5712 5708 5707 5707 5706 5706 5707 5706 5705 5705 5701 5700 5702 5701 5698 5697 5696 5694 5692 5691 5689
5718 5717 5719 5720 5721 5724 5721 5719 5720 5720 5721 5719 5717 5717 5716 5715 5714 5712 5712 5712 5711 5710 5708 5707 5705 5704 5704 5704 5704 5702 5702 5701 5697 5698 5697 5696 5695 5694 5693 5692 5692 5690 5688
5714 5713 5713 5715 5715 5716 5713 5712 5714 5714 5714 5714 5713 5713 5713 5712 5711 5709 5707 5708 5709 5709 5707 5705 5704 5703 5703 5702 5702 5700 5699 5698 5694 5695 5694 5693 5691 5691 5689 5689 5688 5688 5687
5707 5707 5709 5709 5708 5708 5706 5707 5708 5708 5709 5708 5708 5707 5708 5707 5706 5705 5704 5703 5704 5705 5704 5704 5702 5701 5702 5700 5700 5698 5696 5697 5693 5692 5690 5691 5688 5688 5687 5685 5685 5685 5683
5702 5702 5701 5702 5701 5701 5702 5704 5702 5703 5703 5703 5704 5703 5702 5702 5701 5700 5700 5699 5697 5699 5700 5700 5698 5697 5699 5698 5698 5697 5695 5694 5694 5691 5689 5689 5689 5686 5685 5683 5684 5684 5680
5696 5696 5695 5693 5694 5695 5696 5696 5697 5697 5697 5698 5698 5698 5697 5696 5697 5696 5695 5694 5693 5694 5696 5695 5695 5693 5696 5695 5694 5694 5693 5691 5690 5692 5689 5688 5688 5688 5685 5682 5681 5681 5679
5688 5685 5685 5685 5685 5686 5688 5690 5693 5691 5690 5691 5691 5691 5690 5689 5688 5688 5687 5687 5688 5688 5692 5691 5691 5690 5692 5692 5692 5691 5690 5688 5686 5687 5689 5689 5687 5689 5687 5682 5678 5681 5678
5678 5677 5676 5677 5679 5681 5683 5684 5684 5684 5682 5683 5684 5683 5684 5682 5681 5681 5679 5679 5680 5682 5684 5686 5688 5687 5688 5689 5689 5688 5687 5686 5685 5685 5684 5687 5684 5684 5685 5681 5678 5676 5677
5669 5667 5669 5671 5673 5675 5675 5677 5677 5675 5675 5674 5674 5675 5676 5675 5673 5672 5671 5672 5673 5675 5676 5678 5680 5683 5683 5684 5683 5683 5683 5684 5684 5684 5683 5682 5684 5683 5685 5682 5678 5673 5672
5661 5660 5661 5664 5668 5670 5668 5667 5668 5667 5664 5664 5665 5666 5666 5665 5665 5665 5664 5665 5666 5665 5666 5669 5671 5673 5675 5676 5676 5678 5681 5681 5681 5683 5683 5683 5682 5683 5684 5683 5680 5675 5669
5656 5654 5655 5656 5660 5662 5661 5659 5658 5656 5654 5653 5653 5655 5655 5654 5655 5656 5656 5657 5658 5655 5656 5659 5662 5664 5667 5666 5669 5672 5675 5677 5678 5679 5682 5681 5680 5679 5679 5678 5677 5675 5669
5652 5648 5648 5647 5649 5651 5651 5649 5648 5646 5644 5644 5643 5643 5644 5644 5644 5646 5647 5648 5647 5648 5646 5649 5652 5654 5655 5658 5660 5662 5666 5671 5673 5675 5678 5677 5677 5677 5675 5674 5675 5674 5670
5649 5643 5641 5640 5639 5638 5639 5638 5636 5637 5633 5633 5632 5633 5634 5634 5633 5634 5634 5636 5636 5637 5638 5637 5642 5642 5645 5648 5652 5656 5658 5660 5664 5670 5673 5673 5672 5670 5670 5667 5672 5672 5670
5642 5637 5634 5634 5632 5631 5629 5629 5628 5625 5621 5621 5620 5622 5624 5625 5623 5622 5622 5623 5625 5626 5628 5628 5631 5632 5636 5639 5643 5647 5650 5652 5657 5660 5663 5667 5668 5666 5666 5666 5669 5670 5669
5634 5627 5623 5623 5624 5623 5622 5622 5622 5619 5613 5611 5610 5609 5612 5614 5612 5610 5611 5611 5613 5615 5617 5618 5620 5624 5627 5629 5634 5638 5642 5644 5648 5653 5657 5660 5663 5663 5663 5667 5665 5667 5666
5622 5619 5617 5615 5613 5612 5611 5611 5610 5607 5609 5606 5603 5603 5602 5600 5599 5598 5598 5600 5601 5603 5606 5607 5610 5613 5616 5619 5623 5629 5634 5638 5641 5644 5649 5652 5655 5658 5659 5661 5660 5661 5662
5615 5611 5607 5604 5601 5600 5600 5601 5599 5595 5594 5593 5592 5592 5591 5588 5585 5584 5585 5586 5586 5589 5592 5594 5595 5600 5603 5608 5612 5620 5626 5629 5630 5633 5640 5645 5649 5652 5656 5659 5659 5661 5659
5608 5601 5596 5594 5590 5587 5585 5585 5586 5584 5580 5578 5579 5576 5575 5573 5572 5573 5573 5572 5572 5576 5577 5576 5578 5583 5589 5594 5601 5608 5615 5619 5622 5624 5627 5631 5638 5643 5648 5655 5658 5658 5659
5593 5590 5585 5580 5577 5576 5573 5572 5570 5570 5566 5564 5562 5562 5559 5554 5555 5557 5558 5559 5560 5562 5560 5560 5562 5567 5573 5579 5589 5599 5604 5609 5610 5610 5612 5616 5623 5628 5633 5638 5647 5653 5655
5579 5573 5569 5564 5559 5558 5556 5556 5555 5552 5551 5550 5548 5547 5543 5538 5535 5538 5539 5541 5543 5545 5544 5544 5545 5549 5555 5562 5575 5587 5592 5597 5597 5598 5601 5604 5603 5610 5617 5623 5630 5636 5644
5568 5564 5557 5550 5548 5543 5540 5538 5537 5538 5536 5534 5533 5532 5528 5524 5521 5519 5520 5522 5523 5524 5526 5529 5530 5530 5532 5536 5542 5553 5564 5574 5582 5582 5585 5589 5589 5592 5598 5602 5609 5618 5626
5552 5548 5541 5535 5533 5532 5529 5527 5526 5525 5520 5518 5515 5515 5512 5508 5505 5504 5502 5503 5505 5505 5505 5507 5509 5510 5510 5513 5516 5514 5525 5535 5548 5566 5567 5567 5570 5575 5580 5586 5595 5602 5610
5536 5533 5528 5522 5518 5517 5516 5512 5509 5508 5504 5500 5496 5492 5492 5491 5487 5486 5486 5486 5484 5485 5487 5488 5490 5490 5492 5494 5496 5494 5492 5496 5515 5542 5550 5545 5548 5553 5563 5568 5576 5585 5592
5525 5517 5512 5509 5504 5502 5502 5498 5494 5490 5486 5482 5478 5475 5470 5472 5467 5466 5467 5466 5466 5466 5466 5470 5472 5472 5473 5474 5476 5476 5478 5478 5485 5486 5518 5531 5534 5534 5538 5546 5556 5568 5578
5512 5506 5505 5498 5493 5491 5487 5482 5477 5473 5469 5464 5460 5457 5453 5452 5448 5447 5448 5447 5447 5447 5448 5449 5451 5453 5454 5454 5454 5455 5456 5457 5461 5465 5478 5489 5510 5521 5520 5530 5537 5549 5559